CAPE
0 0 0 0 0 0 0 0 0 0 0 0 0 0 0 0 0 0 0 0 0 0 2 6 13 20 33 42 34 20 13 5 26 40 41 29 24 13
0 0 0 0 0 0 0 0 0 0 0 0 0 0 0 0 0 0 0 0 0 0 9 16 28 39 50 28 15 18 24 33 31 32 35 59 26 21
0 0 0 0 0 0 0 0 0 0 0 0 0 0 0 0 0 0 0 0 0 1 18 18 18 15 17 11 15 21 22 46 31 17 16 72 53 39
0 0 0 0 0 0 0 0 0 0 0 0 0 0 0 0 0 0 1 8 5 0 3 18 14 6 4 5 15 16 15 16 13 17 36 22 12 35
0 0 0 0 0 0 0 0 0 0 1 12 1 0 0 0 0 0 0 0 1 5 4 0 2 3 5 13 19 22 30 29 18 21 22 26 45 26
0 0 0 0 0 0 0 1 2 0 0 0 0 1 0 0 3 0 0 0 0 0 0 0 4 7 9 13 12 10 13 18 11 7 10 13 21 18
0 0 0 0 1 2 5 1 1 0 6 37 6 0 2 0 0 0 1 0 0 0 0 0 2 8 2 2 0 0 1 6 6 7 11 18 15 12
0 0 0 0 0 7 9 17 9 15 32 23 27 1 0 0 0 0 0 0 4 12 7 2 2 0 0 0 0 7 12 20 34 7 28 9 8 21
0 0 0 0 2 0 3 24 23 36 46 18 1 2 6 0 0 4 4 3 8 0 1 3 1 4 0 3 6 8 10 8 2 10 8 10 15 17
0 0 0 0 2 15 8 5 22 15 0 1 0 1 5 3 0 0 2 4 1 0 0 0 0 0 0 0 0 0 2 9 11 19 20 15 15 11
0 0 7 3 11 12 31 30 0 0 0 0 27 12 0 0 1 0 0 1 0 0 0 0 0 0 0 0 0 0 0 2 15 37 25 20 37 13
0 0 2 2 8 57 20 3 0 0 1 0 0 0 0 0 2 0 0 0 0 0 0 0 0 0 0 0 0 0 0 0 0 5 7 2 2 1
0 0 0 0 54 13 8 0 0 9 0 0 0 0 0 0 0 0 0 0 0 0 0 0 0 0 0 0 0 0 0 0 0 0 1 1 2 1
0 0 1 31 6 1 0 2 6 6 0 0 0 0 0 0 0 0 0 0 0 0 0 0 0 0 0 0 0 0 0 0 0 0 0 0 0 1
5 24 7 0 0 0 0 0 1 0 0 0 1 0 0 0 0 0 0 0 0 0 0 0 0 0 0 0 1 0 1 0 0 0 0 1 2 1
15 0 0 0 0 0 0 0 0 0 0 0 0 0 0 0 0 0 0 0 0 0 0 0 1 0 0 0 0 0 0 0 0 1 1 0 1 3
2 0 0 0 0 0 0 0 0 0 0 0 0 0 0 0 0 0 0 0 0 0 0 0 0 0 0 0 0 0 0 0 0 0 0 1 0 0
0 0 0 1 0 0 0 0 0 0 0 0 0 0 0 0 0 0 0 1 0 0 1 0 0 0 0 0 0 0 0 0 0 0 0 2 0 1
0 0 1 0 0 0 0 0 0 0 0 0 0 0 0 0 0 0 0 1 0 0 0 0 0 0 0 0 0 0 0 0 0 1 0 1 1 1
0 1 0 0 0 0 0 0 0 0 0 0 0 0 0 0 0 0 0 0 0 0 0 0 0 0 0 0 0 0 0 0 0 0 0 0 0 2
0 0 0 0 0 0 0 0 0 0 0 0 0 0 1 0 0 0 0 0 1 0 0 0 0 1 0 0 0 0 0 0 1 0 0 0 0 1
0 0 0 0 0 0 0 0 0 0 0 0 0 1 1 1 0 0 0 0 0 0 0 0 0 0 0 0 0 0 0 1 1 1 1 1 0 0
0 0 0 0 0 0 0 0 0 0 0 0 0 1 2 1 0 0 0 0 0 0 0 0 0 0 0 0 0 0 0 0 1 1 1 1 1 1
CIN
0 0 0 0 0 0 0 0 0 0 0 0 0 0 0 0 0 0 0 0 0 0 -2 -2 -2 -3 -4 -3 -3 -6 -6 -5 -6 -3 -3 -2 -2 -3
0 0 0 0 0 0 0 0 0 0 0 0 0 0 0 0 0 0 0 0 0 0 -3 -4 -3 -3 -3 -4 -4 -4 -3 -4 -4 -5 -3 -4 -4 -4
0 0 0 0 0 0 0 0 0 0 0 0 0 0 0 0 0 0 0 0 0 -3 -3 -3 -3 -3 -4 -3 -4 -3 -3 -2 -3 -4 -5 -3 -3 -3
0 0 0 0 0 0 0 0 0 0 0 0 0 0 0 0 0 0 0 0 -1 -1 -3 -3 -3 -4 -3 -2 -4 -5 -3 -3 -4 -3 -3 -3 -3 -3
0 0 0 0 0 0 0 0 0 -1 -9 -1 -2 0 0 0 0 0 0 0 -2 -1 -3 0 -4 -3 -2 -2 -3 -3 -3 -3 -1 -1 -2 -1 -2 -1
0 0 0 0 0 -1 0 -1 -2 -1 0 0 0 -10 0 -1 -5 0 0 0 -1 0 0 0 -2 -2 -2 -3 -3 -2 -3 -2 -2 -2 -1 -2 -1 -1
0 0 0 0 -1 -2 -3 -8 -6 -5 -5 -1 -1 0 -9 0 0 0 -1 0 0 0 0 0 -1 -2 -1 -1 -1 -1 -2 -2 -2 -3 -3 -2 -1 -2
0 0 0 0 0 -1 -2 -2 -5 -3 0 0 -1 0 0 -1 0 0 -1 0 -3 -2 -1 -1 -2 0 0 0 -1 -2 -2 -2 -2 -2 0 -2 -1 -1
0 0 0 0 -2 0 -4 -3 -3 -1 -2 -2 -1 -1 -1 0 0 -5 -1 0 -1 -1 -1 0 -2 -1 -2 -1 -1 -2 -2 -3 -4 -2 -2 -1 -1 -1
0 0 0 0 -4 -3 -6 -4 -5 -1 -1 -2 -2 -5 -10 -13 -2 -2 -1 -1 -1 0 -1 0 0 -1 0 0 0 -1 -2 -2 -3 -2 -1 -2 -1 -2
0 0 -2 -1 -3 -5 -2 0 -6 0 0 0 -1 -1 -1 -1 -4 -7 0 0 0 0 0 0 0 0 0 0 0 0 0 -2 -2 0 0 0 0 0
0 -1 -1 -2 -4 -2 -3 -8 0 0 -8 -4 0 0 0 0 -1 0 0 0 0 0 0 0 0 0 0 0 0 0 0 0 -1 -2 -1 -5 -1 -2
-1 0 0 0 0 -5 -5 0 0 -5 -1 0 0 0 0 0 0 0 0 0 0 0 0 0 0 0 0 0 0 0 0 0 0 0 -2 -1 -1 -1
-6 0 -3 -1 -3 -4 -1 -2 -5 -3 0 -1 -1 -1 0 0 0 0 0 0 0 0 0 0 0 0 0 0 0 0 0 0 0 0 0 0 -1 -1
-5 -1 -2 -3 0 0 0 0 -3 0 0 0 0 0 0 0 0 0 0 0 0 0 0 0 0 -2 0 0 0 0 0 0 0 0 0 0 0 0
-2 0 0 0 0 0 0 0 0 0 0 0 0 0 0 0 0 0 0 0 0 0 0 0 -2 -1 0 0 0 0 0 0 0 0 0 0 0 0
-6 0 0 0 0 0 0 0 0 0 0 0 0 0 0 0 0 0 0 0 0 0 0 0 0 0 0 0 0 0 0 0 0 0 0 0 0 0
0 0 0 0 0 0 -1 0 0 0 0 0 0 0 0 0 0 0 0 0 0 0 0 0 0 0 0 0 0 0 0 0 0 0 0 0 0 0
0 0 0 0 -1 -1 -1 0 0 0 0 0 0 0 0 0 0 0 0 0 0 0 0 0 0 0 0 0 0 0 0 0 0 0 0 0 0 0
-1 -1 -1 0 0 0 0 0 0 0 0 0 0 0 0 0 0 0 0 0 0 0 0 0 0 0 0 0 0 0 0 0 0 0 0 0 0 0
0 0 -1 0 0 0 0 0 0 0 0 0 0 0 0 0 0 0 0 0 0 0 0 0 0 0 0 0 0 0 0 0 0 0 0 0 0 0
0 0 -1 0 0 0 0 0 0 0 0 0 0 0 0 0 0 0 0 0 0 0 0 0 0 0 0 0 0 0 0 0 0 0 0 0 0 0
0 0 0 0 0 0 0 0 0 0 0 0 0 0 0 0 0 0 0 0 0 0 0 0 0 0 0 0 0 0 0 0 0 0 0 0 0 0
Wind_Speed
43 41 44 46 44 45 46 47 54 69 69 61 59 51 48 50 49 49 51 54 56 55 54 54 53 53 54 53 54 55 57 59 60 61 63 65 65 67
41 45 47 47 47 46 45 46 48 53 66 59 58 55 53 50 49 49 49 53 53 53 52 51 50 51 52 52 56 59 58 58 59 61 62 62 64 66
44 47 49 48 48 47 46 46 47 48 56 61 56 55 56 57 54 50 49 48 47 49 49 48 50 54 54 58 58 57 57 56 56 57 59 60 61 61
47 48 50 49 48 46 47 47 48 48 51 57 58 57 56 56 54 56 51 45 45 47 49 49 54 59 58 54 54 55 57 56 56 57 58 59 58 59
46 48 50 49 50 48 48 49 49 49 47 51 56 54 54 51 55 50 49 48 48 46 48 49 50 50 51 51 51 52 53 54 54 54 55 54 56 58
46 47 48 48 48 49 50 49 48 51 51 51 51 50 53 50 45 56 56 46 47 45 44 43 43 43 45 46 50 54 55 54 55 55 56 56 56 57
46 46 46 45 48 47 48 51 51 50 49 49 53 49 46 54 52 50 50 51 45 41 39 35 35 34 34 35 35 39 48 48 48 50 52 52 54 54
49 48 45 46 46 47 49 48 45 47 51 48 46 52 51 45 43 43 32 45 53 38 43 36 35 28 27 26 22 24 26 43 52 53 50 51 51 52
48 47 47 45 47 48 47 47 46 42 41 44 47 41 35 29 26 28 47 55 54 55 47 28 37 23 23 21 22 31 31 37 43 52 53 51 53 51
46 46 46 48 47 48 47 46 42 40 37 36 33 26 24 27 26 38 40 38 28 30 20 28 24 20 19 18 21 25 27 30 34 38 53 52 51 52
46 45 47 47 47 47 47 45 41 36 32 23 20 25 26 24 29 28 23 23 22 18 17 18 18 20 18 18 16 19 21 20 16 24 44 46 47 47
46 45 45 46 45 44 45 41 41 32 27 37 40 26 18 18 20 15 15 17 18 19 18 16 16 14 13 12 8 8 9 16 27 33 37 42 44 44
46 45 44 42 40 51 48 34 23 33 47 20 19 18 14 13 14 14 14 13 15 16 16 15 14 12 10 15 10 7 9 16 22 27 32 38 42 44
44 44 39 42 52 45 31 25 29 32 18 17 16 14 14 13 13 13 13 12 12 15 16 14 11 10 15 19 19 15 14 14 15 22 27 33 38 43
42 40 42 48 47 26 22 24 28 19 14 14 14 15 15 16 14 12 11 11 12 11 11 11 8 10 5 7 10 13 15 11 11 15 22 29 35 39
41 39 42 42 24 20 13 16 14 13 15 14 14 15 14 13 13 11 13 12 11 12 11 9 4 1 5 6 6 10 9 8 7 10 14 21 32 36
43 33 17 18 15 11 14 14 14 14 14 12 14 14 15 14 13 12 10 10 10 11 11 9 6 1 10 8 4 5 5 4 4 5 7 4 9 22
37 18 19 15 16 18 19 18 15 16 12 13 13 15 17 17 16 17 11 10 10 10 8 7 4 1 10 11 6 3 1 3 1 2 6 7 5 5
13 18 13 18 16 15 14 14 15 14 13 11 13 15 15 16 23 17 17 13 11 7 7 4 1 6 8 8 4 12 3 4 6 9 11 11 10 8
12 10 16 13 11 12 13 12 12 11 13 18 23 27 36 38 33 32 27 22 20 13 5 2 1 3 5 9 10 3 14 6 7 9 10 11 13 14
12 14 11 10 11 11 11 13 14 14 12 11 13 10 16 33 35 33 32 28 25 20 15 7 4 6 5 6 3 6 8 16 13 7 8 13 16 17
16 13 12 9 11 11 11 11 11 10 11 10 10 9 8 8 6 27 29 29 26 23 18 13 7 6 5 6 3 1 5 9 14 18 17 11 9 14
12 10 10 10 10 10 10 9 10 11 9 9 7 8 9 7 8 9 25 26 25 22 19 14 11 8 6 4 6 4 5 6 9 15 16 17 17 17
Wind_Direction
335 335 332 331 329 327 324 322 319 316 315 319 319 322 321 319 319 318 315 313 311 309 307 305 302 300 298 296 294 293 290 287 284 281 278 275 273 270
337 334 333 331 329 327 326 324 321 317 314 319 319 320 320 320 319 317 315 314 312 310 308 305 304 302 299 297 295 292 290 286 284 280 277 276 273 270
336 334 333 331 329 328 327 324 321 320 316 316 318 319 318 317 317 317 316 314 313 312 310 306 304 302 299 297 294 292 289 288 285 282 279 277 275 271
335 334 333 332 330 329 327 324 322 321 318 316 318 319 318 318 318 316 316 317 315 313 310 306 303 299 297 296 294 292 289 287 284 281 277 274 273 271
336 335 334 332 330 329 327 325 323 322 322 319 318 319 319 321 319 319 319 317 316 314 311 308 305 303 301 299 297 294 291 288 285 282 278 276 271 269
336 335 334 333 331 329 328 327 326 324 322 320 319 322 321 323 323 319 318 320 317 317 314 312 310 308 305 302 299 293 289 286 283 279 276 273 270 266
335 335 334 333 331 330 329 328 326 325 324 324 321 322 325 323 323 323 319 319 319 321 321 321 319 317 313 309 306 302 293 289 284 281 277 272 268 264
334 334 334 333 332 330 329 328 327 327 325 324 325 323 324 326 328 326 323 323 314 327 320 318 318 310 310 309 292 267 256 256 277 275 277 272 270 263
335 334 333 333 332 331 329 329 328 327 327 328 325 327 327 324 314 320 320 313 313 306 318 303 320 299 306 300 274 259 254 253 251 259 269 271 264 261
336 335 334 334 333 332 332 332 333 335 334 334 332 326 320 327 308 286 286 285 308 321 312 280 322 290 293 302 270 262 258 255 250 247 261 263 259 256
338 338 336 335 335 334 335 337 338 340 341 334 320 329 322 300 287 286 288 290 295 306 301 300 300 285 281 278 279 262 254 250 258 300 265 260 255 250
339 340 339 339 338 339 340 342 340 294 295 343 340 342 300 298 292 302 314 302 303 306 333 317 315 314 321 325 285 298 298 251 245 245 242 246 245 240
342 343 343 342 343 331 312 338 293 297 330 316 297 297 314 331 336 345 339 321 308 305 308 307 303 321 296 277 343 317 268 250 240 236 235 235 232 229
344 344 345 345 320 309 298 294 297 300 299 298 304 316 321 327 324 315 314 317 313 297 304 301 315 300 272 272 268 264 261 247 230 229 228 229 227 223
346 346 346 338 318 297 296 299 300 296 300 305 309 310 309 306 309 317 324 329 331 321 335 314 311 270 248 241 244 266 273 252 214 225 223 220 218 217
350 351 346 323 297 297 317 303 301 300 300 304 307 309 312 316 318 321 319 328 343 331 4 4 352 184 184 174 219 264 266 236 241 230 217 213 207 209
350 358 312 302 306 332 309 302 301 305 306 312 310 311 313 317 317 322 331 336 353 342 357 16 349 183 132 162 221 258 265 255 265 235 188 190 203 209
357 307 301 305 303 301 300 301 304 305 312 313 315 311 306 306 307 307 315 327 345 351 12 15 25 69 129 134 141 302 122 135 111 114 153 82 107 191
318 300 309 299 299 301 304 306 306 310 312 326 321 310 308 302 302 302 304 306 319 357 26 35 333 123 128 128 135 2 89 83 93 88 117 113 103 105
312 325 299 303 309 309 310 315 318 334 358 8 11 11 358 328 314 317 313 306 309 311 336 347 256 264 164 149 142 86 19 62 103 84 85 93 94 81
313 303 312 310 312 324 347 356 2 3 339 341 5 330 305 322 330 327 326 320 320 315 315 312 268 281 264 196 157 24 22 28 39 70 81 76 75 80
298 302 304 329 348 348 347 354 350 329 321 326 332 347 354 332 1 314 323 324 324 326 318 309 296 295 307 342 347 13 20 32 39 48 52 70 125 94
303 313 319 328 341 343 339 331 314 312 326 334 343 354 2 359 29 42 311 320 324 326 326 317 320 311 324 320 356 359 23 42 52 58 60 66 74 81